Altus AFB, OK

2:56 AM CDT on April 25, 2017 (GMT -0500)
Altus Air Force Base

Weather History for KLTS - October, 2013

Change the Weather History Date:

Saturday, October 12, 2013

  Actual Average Record
Temperature  
Mean Temperature 65 °F -  
Max Temperature 77 °F 75 °F 88 °F (2007)
Min Temperature 53 °F 52 °F 39 °F (2006)
Growing Degree Days 15 (Base 50)    
Moisture  
Dew Point 46 °F    
Average Humidity 53    
Maximum Humidity 72    
Minimum Humidity 36    
Precipitation  
Precipitation 0.00 in - - ()
Sea Level Pressure  
Sea Level Pressure 30.03 in    
Wind  
Wind Speed 12 mph (NE)    
Max Wind Speed 29 mph    
Max Gust Speed 34 mph    
Visibility 10 miles    
Events      
Averages and records for this station are not official NWS values.
T = Trace of Precipitation, MM = Missing Value Source: NWS Daily Summary

Daily Weather History Graph

Daily Weather History Graph

Search for Another Location

Airport or City:

Trip Planner

Search our weather history database for the weather conditions in past years. The results will help you decide how hot, cold, wet, or windy it might be!

Date:

Astronomy

Oct. 12, 2013 Rise Set
Actual Time 7:40 AM CDT 7:05 PM CDT
Civil Twilight 7:15 AM CDT 7:31 PM CDT
Nautical Twilight 6:45 AM CDT 8:00 PM CDT
Astronomical Twilight 6:16 AM CDT 8:29 PM CDT
Moon 3:02 PM CDT (10/12) 1:00 AM CDT (10/12)
Length of Visible Light 12h 16m
Length of Day
11h 25m
First Quarter, 59% of the Moon is Illuminated
Oct 12
First Quarter
Oct 18
Full
Oct 26
Last Quarter
Nov 3
New
Nov 9
First Quarter

Hourly Weather History & Observations

Time (CDT) Temp. Dew Point Humidity Pressure Visibility Wind Dir Wind Speed Gust Speed Precip Events Conditions
12:56 AM 59.0 °F 42.8 °F 55% 29.87 in 10.0 mi ESE 2.3 mph - N/A   Clear
1:56 AM 53.6 °F 44.6 °F 72% 29.88 in 10.0 mi North 3.5 mph - N/A   Clear
2:56 AM 57.2 °F 41.0 °F 55% 29.91 in 10.0 mi NE 3.5 mph - N/A   Clear
3:56 AM 57.2 °F 39.2 °F 51% 29.92 in 10.0 mi North 10.4 mph - N/A   Clear
4:56 AM 59.0 °F 41.0 °F 51% 29.93 in 10.0 mi NNE 16.1 mph - N/A   Clear
5:56 AM 59.0 °F 44.6 °F 59% 29.95 in 10.0 mi NNE 19.6 mph 26.5 mph N/A   Clear
6:56 AM 57.2 °F 44.6 °F 63% 29.97 in 10.0 mi NE 20.7 mph 27.6 mph N/A   Clear
7:56 AM 57.2 °F 44.6 °F 63% 29.99 in 10.0 mi NNE 24.2 mph 29.9 mph N/A   Mostly Cloudy
8:56 AM 59.0 °F 44.6 °F 59% 30.03 in 10.0 mi NNE 26.5 mph 32.2 mph N/A   Partly Cloudy
9:56 AM 64.4 °F 42.8 °F 45% 30.06 in 10.0 mi NNE 28.8 mph 34.5 mph N/A   Clear
10:56 AM 66.2 °F 44.6 °F 46% 30.08 in 10.0 mi NE 24.2 mph 29.9 mph N/A   Clear
11:56 AM 69.8 °F 46.4 °F 43% 30.10 in 10.0 mi NE 17.3 mph - N/A   Clear
12:56 PM 73.4 °F 48.2 °F 41% 30.09 in 10.0 mi NNE 16.1 mph - N/A   Clear
1:56 PM 75.2 °F 50.0 °F 41% 30.07 in 10.0 mi NE 16.1 mph - N/A   Clear
2:56 PM 77.0 °F 50.0 °F 39% 30.05 in 10.0 mi NNE 12.7 mph - N/A   Clear
3:56 PM 77.0 °F 50.0 °F 39% 30.04 in 10.0 mi NE 11.5 mph - N/A   Clear
4:56 PM 77.0 °F 48.2 °F 36% 30.04 in 9.0 mi NE 15.0 mph - N/A   Clear
5:56 PM 75.2 °F 48.2 °F 38% 30.05 in 10.0 mi NNE 13.8 mph - N/A   Clear
6:56 PM 71.6 °F 48.2 °F 43% 30.06 in 10.0 mi NE 10.4 mph - N/A   Clear
7:56 PM 62.6 °F 48.2 °F 59% 30.09 in 10.0 mi NE 8.1 mph - N/A   Clear
8:56 PM 60.8 °F 48.2 °F 63% 30.12 in 10.0 mi NE 8.1 mph - N/A   Clear
9:56 PM 57.2 °F 48.2 °F 72% 30.14 in 10.0 mi NE 8.1 mph - N/A   Clear
10:56 PM 57.2 °F 48.2 °F 72% 30.15 in 10.0 mi NE 9.2 mph - N/A   Clear
11:56 PM 57.2 °F 48.2 °F 72% 30.16 in 10.0 mi NNE 8.1 mph - N/A   Clear